This is the latest recevied weather packets stored in our database for station/object DG6YGE-6. If no packets are shown the sender has not sent any weather packets the latest 10 day(s).
| Time | Temp. | Humidity | Pressure | Rain* | Wind** | Luminosity | Snow |
|---|---|---|---|---|---|---|---|
| 1788635952 | 16.11° C | 72% | 1022.2 hPa | 0 mm | - | 0 W/m² | - |
| 1788635352 | 16.11° C | 71% | 1022.1 hPa | 0 mm | - | 0 W/m² | - |
| 1788634752 | 16.11° C | 71% | 1022 hPa | 0 mm | - | 0 W/m² | - |
| 1788634151 | 16.11° C | 71% | 1021.8 hPa | 0 mm | - | 0 W/m² | - |
| 1788633552 | 16.11° C | 71% | 1021.9 hPa | 0 mm | - | 0 W/m² | - |
| 1788632952 | 16.67° C | 71% | 1021.7 hPa | 0 mm | - | 0 W/m² | - |
| 1788632351 | 16.67° C | 72% | 1021.5 hPa | 0 mm | - | 2 W/m² | - |
| 1788631752 | 17.22° C | 72% | 1021.4 hPa | 0 mm | - | 5 W/m² | - |
| 1788631152 | 17.22° C | 71% | 1021.2 hPa | 0 mm | - | 12 W/m² | - |
| 1788630552 | 17.22° C | 72% | 1021 hPa | 0 mm | - | 16 W/m² | - |
| 1788629951 | 17.78° C | 71% | 1021 hPa | 0 mm | - | 23 W/m² | - |
| 1788629351 | 17.78° C | 71% | 1021 hPa | 0 mm | - | 38 W/m² | - |
| 1788628751 | 17.78° C | 70% | 1020.9 hPa | 0 mm | - | 51 W/m² | - |
| 1788628152 | 17.78° C | 69% | 1020.7 hPa | 0 mm | - | 56 W/m² | - |
| 1788627552 | 17.78° C | 68% | 1020.7 hPa | 0 mm | - | 36 W/m² | - |
| 1788626952 | 18.33° C | 68% | 1020.6 hPa | 0 mm | - | 99 W/m² | - |
| 1788626352 | 18.33° C | 67% | 1020.2 hPa | 0 mm | - | 125 W/m² | - |
| 1788625751 | 18.33° C | 67% | 1020.3 hPa | 0 mm | - | 109 W/m² | - |
| 1788625152 | 18.33° C | 68% | 1020.1 hPa | 0 mm | - | 169 W/m² | - |
| 1788624551 | 18.33° C | 70% | 1020.1 hPa | 0 mm | - | 96 W/m² | - |
| 1788623952 | 17.78° C | 71% | 1019.9 hPa | 0 mm | - | 216 W/m² | - |
| 1788623352 | 17.78° C | 71% | 1019.9 hPa | 0 mm | - | 102 W/m² | - |
| 1788622751 | 18.33° C | 70% | 1019.8 hPa | 0 mm | - | 143 W/m² | - |
| 1788622152 | 18.33° C | 69% | 1019.7 hPa | 0 mm | - | 115 W/m² | - |
| 1788621551 | 18.89° C | 67% | 1019.7 hPa | 0 mm | - | 75 W/m² | - |
* Rain latest hour (hover to see other rain measurements)
** Current wind speed in m/s (hover to see current wind gust speed)